Location: *
(46.3500°N, 10.9000°E)
Time: 18:21:54
(UTC+00:00)

Cosmos 2058 - Pass Details

Date: 09 April 2020
Orbit: 563 x 583 km, 82.5° (Epoch: 24 May)

Event Time Altitude Azimuth Distance (km) Brightness Sun altitude
Rises 19:14:10 0° 0° (N) 2,774 6.8 -13.4°
Reaches altitude 10° 19:16:37 10° 13° (NNE) 1,874 5.7 -13.8°
Maximum altitude 19:20:10 28° 73° (ENE) 1,097 4.0 -14.3°
Enters shadow 19:21:20 24° 101° (E) 1,203 4.0 -14.5°
